Wind from 192 at 6 knots gusting 22

Air temperature 11.1° C
Dewpoint 3.6° C

Last reported at 2014-Apr-17 11:46 UTC.
Time now 2014-Apr-17 12:35 UTC

Location: N 57°49' E 012°21'.
View on Google Maps.

See reports from other nearby stations

Tides Stations Pressure Air Temp Water Temp Dewpoint Dewpoint depression Visibility Wind Speed Wind Dir Waves Ship positions

  
sailing weather and tide predictions

DW7076 Floda SE weather

date/time (UTC)wind fromknots sea level pressurealtimeterstation pressurevisibilityair tempwater tempwave heightnotes
2014-Apr-17 11:46 192 6 gusting 22 11.1
2014-Apr-17 11:36 197 2 gusting 13 11.1
2014-Apr-17 11:26 174 6 gusting 26 11.7
2014-Apr-17 11:16 194 5 gusting 19 12.2
2014-Apr-17 11:06 184 8 gusting 24 12.2
2014-Apr-17 10:56 165 6 gusting 19 12.2
2014-Apr-17 10:46 113 7 gusting 15 12.2
2014-Apr-17 10:36 204 4 gusting 19 12.8
2014-Apr-17 10:26 159 4 gusting 20 12.8
2014-Apr-17 10:16 145 4 gusting 17 12.2
2014-Apr-17 10:06 121 4 gusting 15 12.2
2014-Apr-17 09:56 206 6 gusting 17 12.2
2014-Apr-17 09:46 184 6 gusting 19 12.2
2014-Apr-17 09:36 181 6 gusting 20 12.2
2014-Apr-17 09:26 160 6 gusting 18 12.2
2014-Apr-17 09:16 176 8 gusting 15 12.2
2014-Apr-17 09:06 090 5 gusting 17 11.7
2014-Apr-17 08:56 170 6 gusting 20 11.1
2014-Apr-17 08:46 132 4 gusting 13 11.1
2014-Apr-17 08:36 188 4 gusting 20 11.1
2014-Apr-17 08:26 212 5 gusting 17 10.6
2014-Apr-17 08:16 169 5 gusting 15 10.6
2014-Apr-17 08:06 203 2 gusting 15 10.0
2014-Apr-17 07:56 017 5 gusting 13 10.0
2014-Apr-17 07:46 190 7 gusting 17 10.0
2014-Apr-17 07:36 171 7 gusting 17 10.6
2014-Apr-17 07:26 325 4 gusting 13 10.0
2014-Apr-17 07:16 173 5 gusting 17 9.4
2014-Apr-17 07:06 181 5 gusting 13 8.3
2014-Apr-17 06:56 189 4 gusting 12 7.8
2014-Apr-17 06:46 169 5 gusting 13 7.2
2014-Apr-17 06:36 227 1 gusting 13 6.7
2014-Apr-17 06:26 221 4 gusting 10 6.7
2014-Apr-17 06:16 157 3 gusting 7 6.1
2014-Apr-17 06:06 146 1 gusting 7 6.1
2014-Apr-17 05:56 184 1 gusting 7 5.6
2014-Apr-17 05:46 136 2 gusting 6 5.6
2014-Apr-17 05:36 176 2 gusting 10 5.6
2014-Apr-17 05:26 138 1 gusting 8 5.0
2014-Apr-17 05:16 180 2 gusting 5 5.0
2014-Apr-17 05:06 163 2 gusting 6 5.0
2014-Apr-17 04:56 111 0 gusting 6 4.4
2014-Apr-17 04:46 131 1 gusting 4 4.4
2014-Apr-17 04:36 121 0 gusting 2 4.4
2014-Apr-17 04:26 141 1 gusting 4 4.4
2014-Apr-17 04:16 146 0 gusting 2 3.9
2014-Apr-17 04:06 140 3.9
2014-Apr-17 03:56 120 0 gusting 5 3.9
2014-Apr-17 03:46 161 2 gusting 4 4.4
2014-Apr-17 03:36 198 1 gusting 4 4.4
2014-Apr-17 03:26 156 1 gusting 2 4.4
2014-Apr-17 03:16 136 1 gusting 4 4.4
2014-Apr-17 03:06 156 0 gusting 4 4.4
2014-Apr-17 02:56 179 4.4
2014-Apr-17 02:46 222 0 gusting 2 4.4
2014-Apr-17 02:36 154 0 gusting 6 4.4
2014-Apr-17 02:26 154 4.4
2014-Apr-17 02:16 157 0 gusting 4 4.4
2014-Apr-17 02:06 150 0 gusting 2 4.4
2014-Apr-17 01:56 149 1 gusting 4 4.4
2014-Apr-17 01:46 178 1 gusting 6 4.4
2014-Apr-17 01:36 167 4.4
2014-Apr-17 01:26 153 0 gusting 2 4.4
2014-Apr-17 01:16 200 0 gusting 2 5.0
2014-Apr-17 01:06 028 0 gusting 2 5.0
2014-Apr-17 00:56 162 1 gusting 4 5.0
2014-Apr-17 00:46 193 5.0
2014-Apr-17 00:36 186 5.0
2014-Apr-17 00:26 125 5.0
2014-Apr-17 00:16 171 5.0
2014-Apr-17 00:06 139 5.0
2014-Apr-16 23:56 124 5.0
2014-Apr-16 23:46 186 4.4
2014-Apr-16 23:36 219 0 gusting 2 4.4
2014-Apr-16 23:26 171 4.4
2014-Apr-16 23:16 167 4.4
2014-Apr-16 23:06 167 5.0
2014-Apr-16 22:56 167 5.0
2014-Apr-16 22:46 167 5.0
2014-Apr-16 22:36 167 5.0
2014-Apr-16 22:26 167 0 gusting 2 5.0
2014-Apr-16 22:16 166 4.4
2014-Apr-16 22:06 148 4.4
2014-Apr-16 21:56 183 5.0
2014-Apr-16 21:46 183 4.4
2014-Apr-16 21:36 183 5.0
2014-Apr-16 21:26 183 5.0
2014-Apr-16 21:16 183 5.0
2014-Apr-16 21:06 183 5.0
2014-Apr-16 20:56 183 5.0
2014-Apr-16 20:46 183 5.0
2014-Apr-16 20:36 183 5.0
2014-Apr-16 20:26 183 5.0
2014-Apr-16 20:16 183 0 gusting 2 5.6
2014-Apr-16 20:06 182 5.6
2014-Apr-16 19:56 182 5.6
2014-Apr-16 19:46 182 5.6
2014-Apr-16 19:36 182 6.1
2014-Apr-16 19:26 182 6.1
2014-Apr-16 19:16 182 0 gusting 2 6.7
2014-Apr-16 19:06 078 6.7
2014-Apr-16 18:56 078 7.2
2014-Apr-16 18:46 078 7.2
2014-Apr-16 18:36 078 7.8
2014-Apr-16 18:26 252 1 gusting 4 7.8
2014-Apr-16 18:16 146 8.3
2014-Apr-16 18:06 250 0 gusting 4 8.3
2014-Apr-16 17:56 174 1 gusting 10 8.3
2014-Apr-16 17:46 341 1 gusting 6 8.9
2014-Apr-16 17:36 190 0 gusting 5 8.9
2014-Apr-16 17:26 202 0 gusting 2 8.9
2014-Apr-16 17:16 233 1 gusting 8 8.9
2014-Apr-16 17:06 177 2 gusting 6 9.4
2014-Apr-16 16:56 168 0 gusting 5 9.4
2014-Apr-16 16:46 262 2 gusting 10 9.4
2014-Apr-16 16:36 241 1 gusting 6 10.0
2014-Apr-16 16:26 166 2 gusting 10 10.0
2014-Apr-16 16:16 162 4 gusting 10 10.0
2014-Apr-16 16:06 234 0 gusting 8 10.0
2014-Apr-16 15:56 293 1 gusting 7 10.6
2014-Apr-16 15:46 203 4 gusting 8 10.6
2014-Apr-16 15:36 162 2 gusting 8 11.1
2014-Apr-16 15:26 276 1 gusting 10 11.1
2014-Apr-16 15:16 284 3 gusting 8 11.7
2014-Apr-16 15:06 163 2 gusting 11 11.7
2014-Apr-16 14:56 245 2 gusting 7 11.7
2014-Apr-16 14:46 251 4 gusting 12 11.7
2014-Apr-16 14:36 263 1 gusting 12 11.7
2014-Apr-16 14:26 338 2 gusting 11 11.7
2014-Apr-16 14:16 228 2 gusting 10 11.7
2014-Apr-16 14:06 209 3 gusting 12 11.7
2014-Apr-16 13:56 224 3 gusting 11 11.7
2014-Apr-16 13:46 178 2 gusting 10 11.7
2014-Apr-16 13:36 299 4 gusting 10 11.7
2014-Apr-16 13:26 151 4 gusting 11 11.7
2014-Apr-16 13:16 282 2 gusting 10 11.7
2014-Apr-16 13:06 339 4 gusting 10 11.7
2014-Apr-16 12:56 327 6 gusting 13 11.7
2014-Apr-16 12:46 274 6 gusting 13 11.7
2014-Apr-16 12:36 206 1 gusting 8 11.7
2014-Apr-16 12:26 258 6 gusting 13 11.1
2014-Apr-16 12:16 293 4 gusting 12 11.1
2014-Apr-16 12:06 185 5 gusting 11 10.6
2014-Apr-16 11:56 278 4 gusting 10 10.6
2014-Apr-16 11:46 235 2 gusting 11 11.1
2014-Apr-16 11:36 218 1 gusting 13 11.1
2014-Apr-16 11:26 311 2 gusting 10 11.1
2014-Apr-16 11:16 245 4 gusting 10 11.1
2014-Apr-16 11:06 239 2 gusting 11 11.1
2014-Apr-16 10:56 243 2 gusting 7 11.1
2014-Apr-16 10:46 194 2 gusting 12 11.1
2014-Apr-16 10:36 153 2 gusting 6 10.6
2014-Apr-16 10:26 225 3 gusting 10 11.1
2014-Apr-16 10:16 136 0 gusting 11 11.1
2014-Apr-16 10:06 306 1 gusting 7 11.1
2014-Apr-16 09:56 242 4 gusting 7 11.1
2014-Apr-16 09:46 269 4 gusting 11 10.6
2014-Apr-16 09:36 280 6 gusting 10 10.6
2014-Apr-16 09:26 277 2 gusting 10 10.0
2014-Apr-16 09:16 278 4 gusting 10 10.0
2014-Apr-16 09:06 206 4 gusting 10 10.0
2014-Apr-16 08:56 205 2 gusting 8 10.0
2014-Apr-16 08:46 190 1 gusting 10 9.4
2014-Apr-16 08:36 290 2 gusting 7 9.4
2014-Apr-16 08:26 177 1 gusting 4 8.3
2014-Apr-16 08:16 168 7.8
2014-Apr-16 08:06 209 1 gusting 6 7.2
2014-Apr-16 07:56 169 1 gusting 6 7.2
2014-Apr-16 07:46 287 0 gusting 5 7.2
2014-Apr-16 07:36 189 0 gusting 5 7.2
2014-Apr-16 07:26 171 1 gusting 5 6.7
2014-Apr-16 07:16 211 2 gusting 6 6.7
2014-Apr-16 07:06 250 1 gusting 7 6.7
2014-Apr-16 06:56 250 1 gusting 2 6.1
2014-Apr-16 06:46 171 1 gusting 4 5.6
2014-Apr-16 06:36 305 4.4
2014-Apr-16 06:26 305 3.9
2014-Apr-16 06:16 305 2.8
2014-Apr-16 06:06 305 1.7
2014-Apr-16 05:56 305 -0.0
2014-Apr-16 05:46 305 -1.1
2014-Apr-16 05:36 305 -1.1
2014-Apr-16 05:26 305 -1.7
2014-Apr-16 05:16 305 -1.7
2014-Apr-16 05:06 305 -1.7
2014-Apr-16 04:56 305 -1.7
2014-Apr-16 04:46 305 -1.7
2014-Apr-16 04:36 305 -2.2
2014-Apr-16 04:26 305 -2.2
2014-Apr-16 04:16 305 -2.2
2014-Apr-16 04:06 305 -2.2
2014-Apr-16 03:56 305 -2.2
2014-Apr-16 03:46 305 -2.2
2014-Apr-16 03:36 305 -1.7
2014-Apr-16 03:26 305 -1.7
2014-Apr-16 03:16 305 -1.7
2014-Apr-16 03:06 305 -1.7
2014-Apr-16 02:56 305 -1.7
2014-Apr-16 02:46 305 -1.7
2014-Apr-16 02:36 305 -1.7
2014-Apr-16 02:26 305 -1.7
2014-Apr-16 02:16 305 -1.7
2014-Apr-16 02:06 305 -1.7
2014-Apr-16 01:56 305 -1.1
2014-Apr-16 01:46 305 -1.1
2014-Apr-16 01:36 305 -1.1
2014-Apr-16 01:26 305 -1.1
2014-Apr-16 01:16 305 -1.1
2014-Apr-16 01:06 305 -1.1
2014-Apr-16 00:56 305 -1.1
2014-Apr-16 00:46 305 -1.1
2014-Apr-16 00:36 305 -1.1
2014-Apr-16 00:26 305 -0.6
2014-Apr-16 00:16 305 -0.6
2014-Apr-16 00:06 305 -0.6
2014-Apr-15 23:56 305 -0.6
2014-Apr-15 23:46 305 -0.6
2014-Apr-15 23:36 305 -0.6
2014-Apr-15 23:26 305 -0.0
2014-Apr-15 23:16 305 -0.0
2014-Apr-15 23:06 305 -0.0
2014-Apr-15 22:56 305 -0.0
2014-Apr-15 22:46 305 -0.0
2014-Apr-15 22:36 305 0.6
2014-Apr-15 22:26 305 0.6
2014-Apr-15 22:16 305 0.6
2014-Apr-15 22:06 305 0.6
2014-Apr-15 21:56 305 1.1
2014-Apr-15 21:46 305 1.1
2014-Apr-15 21:36 305 1.1
2014-Apr-15 21:26 305 1.7
2014-Apr-15 21:16 305 1.7
2014-Apr-15 21:06 305 1.7
2014-Apr-15 20:56 305 2.2
2014-Apr-15 20:46 305 2.2
2014-Apr-15 20:36 305 2.8
2014-Apr-15 20:26 305 2.8
2014-Apr-15 20:16 305 3.3
2014-Apr-15 20:06 305 3.3
2014-Apr-15 19:56 305 3.9
2014-Apr-15 19:46 305 3.9
2014-Apr-15 19:36 305 4.4
2014-Apr-15 19:26 305 4.4
2014-Apr-15 19:16 305 4.4
2014-Apr-15 19:06 305 0 gusting 1 5.0
2014-Apr-15 18:56 305 0 gusting 1 5.0
2014-Apr-15 18:46 305 0 gusting 2 5.6
2014-Apr-15 18:36 305 0 gusting 2 5.6
2014-Apr-15 18:26 305 0 gusting 2 6.1
2014-Apr-15 18:16 305 0 gusting 1 6.7
2014-Apr-15 18:06 305 1 gusting 2 7.2
2014-Apr-15 17:56 305 0 gusting 1 7.8
2014-Apr-15 17:46 305 8.3
2014-Apr-15 17:36 305 0 gusting 1 8.9
2014-Apr-15 17:26 305 0 gusting 1 8.9
2014-Apr-15 17:16 305 9.4
2014-Apr-15 17:06 071 9.4
2014-Apr-15 16:56 073 0 gusting 2 9.4
2014-Apr-15 16:46 329 0 gusting 2 10.0
2014-Apr-15 16:36 063 0 gusting 5 10.6
2014-Apr-15 16:26 054 0 gusting 5 10.6
2014-Apr-15 16:16 066 1 gusting 4 10.6
2014-Apr-15 16:06 055 2 gusting 7 11.1
2014-Apr-15 15:56 061 1 gusting 4 11.1
2014-Apr-15 15:46 053 2 gusting 7 11.1
2014-Apr-15 15:36 11.7
2014-Apr-15 15:26 086 1 gusting 6 11.7
2014-Apr-15 15:16 024 2 gusting 6 11.7
2014-Apr-15 15:06 070 1 gusting 6 11.7
2014-Apr-15 14:56 348 2 gusting 7 11.7
2014-Apr-15 14:46 063 2 gusting 6 12.2
2014-Apr-15 14:36 012 3 gusting 13 12.2
2014-Apr-15 14:26 069 5 gusting 11 12.2
2014-Apr-15 14:16 049 4 gusting 10 12.2
2014-Apr-15 14:06 059 2 gusting 7 11.7
2014-Apr-15 13:56 043 2 gusting 8 11.7
2014-Apr-15 13:46 065 4 gusting 11 12.2
2014-Apr-15 13:36 031 2 gusting 6 12.2
2014-Apr-15 13:26 019 2 gusting 10 12.2
2014-Apr-15 13:16 071 2 gusting 10 12.2
2014-Apr-15 13:06 048 3 gusting 10 12.2
2014-Apr-15 12:56 054 3 gusting 8 11.7
2014-Apr-15 12:46 032 5 gusting 10 12.2
2014-Apr-15 12:36 044 2 gusting 10 12.2
2014-Apr-15 12:26 047 2 gusting 6 11.7
2014-Apr-15 12:16 053 0 gusting 8 11.7
2014-Apr-15 12:06 071 4 gusting 10 11.1